Regional Weather Roundup
Issued by NWS Charleston, SC

Home | Current Version | Previous Version | Text Only | Print | Product List | Glossary On
Versions: 1 2 3 4 5 6 7 8 9 10 11 12 13 14 15 16 17 18 19 20 21 22 23 24 25 26 27 28 29 30 31 32 33 34 35 36 37 38 39 40 41 42 43 44 45 46 47 48 49 50
117
ASUS42 KCHS 261826
RWRCHS

REGIONAL WEATHER ROUNDUP
NATIONAL WEATHER SERVICE CHARLESTON SC
100 PM EST SUN FEB 26 2017

NOTE: "FAIR" INDICATES FEW OR NO CLOUDS BELOW 12,000 FEET WITH NO
SIGNIFICANT WEATHER AND/OR OBSTRUCTIONS TO VISIBILITY.

NOT ALL STATIONS ARE QUALITY CONTROLLED. USE DATA WITH CAUTION...
ESPECIALLY DEWPOINT OBSERVATIONS.

SCZ027-030-031-034>040-042>050-261900-
...SOUTHEAST SOUTH CAROLINA...

CITY           SKY/WX    TMP DP  RH WIND       PRES   REMARKS
N CHARLESTON   SUNNY     63  21  20 VRB7      30.20F
6HR MIN TEMP:  43; 6HR MAX TEMP:  63;

WATERFRONT PRK   N/A     58  30  34 CALM      30.20S
MOUNT PLEASANT FAIR      61  32  33 S7        30.20S
JOHNS ISLAND   FAIR      59  32  36 SE8       30.21S
PINOPOLIS        N/A     54  25  32 CALM      30.13S
MONCKS CORNER  FAIR      59  21  23 N3        30.21S
SUMMERVILLE    FAIR      61  21  21 W6        30.21S
BEAUFORT MCAS  SUNNY     64  24  21 MISG      30.21F
6HR MIN TEMP:  43; 6HR MAX TEMP:  64;

BEAUFORT ARPT  FAIR      61  34  36 SW9       30.21F
HILTON HEAD IS SUNNY     59  30  33 N3        30.23S
WALTERBORO     CLEAR     63  23  22 W7        30.21F
ALLENDALE      FAIR      63  16  16 N8G15     30.20F

...SOUTHERN MIDLANDS AND PEE DEE...

CITY           SKY/WX    TMP DP  RH WIND       PRES   REMARKS
GEORGETOWN     FAIR      59  21  23 SW5       30.20F
KINGSTREE      FAIR      57  21  24 CALM      30.20F
ORANGEBURG     SUNNY     58  18  21 NW6       30.21F
6HR MIN TEMP:  41; 6HR MAX TEMP:  59;

BARNWELL       FAIR      63  19  19 N8        30.20F
AIKEN          FAIR      61  18  18 SW8       30.23F
MANNING        FAIR      59 -33   2 MISG      30.21F
COLUMBIA       SUNNY     58  20  22 NW5       30.21S
6HR MIN TEMP:  35; 6HR MAX TEMP:  58;

SUMTER         SUNNY     57  19  22 W10       30.19S
6HR MIN TEMP:  39; 6HR MAX TEMP:  58;

FLORENCE       SUNNY     55  19  24 SW5       30.21F
6HR MIN TEMP:  40; 6HR MAX TEMP:  56;

MYRTLE BEACH   SUNNY     55  19  24 N12       30.21F
N MYRTLE BEACH SUNNY     58  20  22 VRB3      30.19F
6HR MIN TEMP:  43; 6HR MAX TEMP:  59;


$$

GAZ063-065-086>088-099>101-113>116-118-119-134>141-150-261900-
...SOUTHEAST GEORGIA...

CITY           SKY/WX    TMP DP  RH WIND       PRES   REMARKS
SAVANNAH ARPT  SUNNY     64  18  17 CALM      30.23S
6HR MIN TEMP:  40; 6HR MAX TEMP:  64;

HUNTER AAF     SUNNY     63  27  26 W6        30.20F
6HR MIN TEMP:  39; 6HR MAX TEMP:  64;

FORT STEWART   SUNNY     63  21  19 CALM      30.21F
6HR MIN TEMP:  39; 6HR MAX TEMP:  64;

STATESBORO     SUNNY     63  27  25 NW7       30.23S
SYLVANIA       CLEAR    N/A N/A N/A SW3       30.23S
CLAXTON        FAIR      63  27  24 SW5       30.23F

...CSRA...CENTRAL AND FAR SOUTHEAST GEORGIA...

CITY           SKY/WX    TMP DP  RH WIND       PRES   REMARKS
THOMSON        SUNNY     62  23  23 W5        30.25F
AUGUSTA-BUSH   SUNNY     62  18  18 N8        30.21F
6HR MIN TEMP:  33; 6HR MAX TEMP:  62;

AUGUSTA-DANIEL SUNNY     60  12  15 VRB7      30.22F
SWAINSBORO     FAIR      63  16  16 NW6       30.23F
VIDALIA        SUNNY     64  30  27 CALM      30.22F
EASTMAN        FAIR     N/A N/A N/A E3        30.25F
HAZLEHURST     FAIR      64  24  22 NW3       30.22F
ALMA           SUNNY     63  19  18 NW6       30.23F
6HR MIN TEMP:  35; 6HR MAX TEMP:  63;

WAYCROSS       SUNNY     67  24  20 N5        30.22F
JESUP          FAIR      64  10  12 NW9       30.22F
BAXLEY         FAIR      64  32  29 E10       30.22F
BRUNSWICK      SUNNY     68  30  24 W7        30.22F
SAINT SIMONS   SUNNY     65  20  17 CALM      30.22F
6HR MIN TEMP:  46; 6HR MAX TEMP:  65;


$$

SCZ027-028-034-036>038-045-046-048>050-GAZ119-141-261900-
...LAKE AND SUPPLEMENTAL COASTAL OBSERVATIONS...

STATION/POSITION TIME  TEMP    WIND        PRES    WAVE   SWELL
                       AIR SEA DIR/SP/G            HT/PER HT/PER/DIR
                 (UTC) (F)     (DEG/KT/KT) (MB)    (FT/S) (FT/S/D)
WINYAH BAY       1745   54     110/  6     1022.0F
LAKE MURRAY      1750   51     190/  7/  9 1022.4F
ACE BASIN NERRS  1730   62     190/  2     1023.0S
FORT PULASKI     1800   59 63  190/  2/  4 1023.7
SAPELO ISLAND    1800   64      10/  3     1023.0

$$

ANZ835-935-AMZ111-154-330-350-352-354-370-450-454-472-261900-
...C-MAN AND BUOY OBSERVATIONS...

STATION/POSITION TIME  TEMP    WIND        PRES    WAVE   SWELL
                       AIR SEA DIR/SP/G            HT/PER HT/PER/DIR
                 (UTC) (F)     (DEG/KT/KT) (MB)    (FT/S) (FT/S/D)
BUOY 41004       1750   56 69   10/  4/  6 1022.7F   3/10   3/120/10
BUOY 41008       1750   54 62  350/  8/ 10 1023.6F   2/10   2/ 60/10
FOLLY BEACH CMAN 1800   55     120/  7/  9 1023.7R
CAPERS NEARSHORE 1708   54 61  100/  2/  6 1023.1F
FRIPP NEARSHORE  1808   55 62  150/  6/  8 1023.3F


STATION/POSITION TIME  TEMP    WIND        PRES    WAVE   SWELL
                       AIR SEA DIR/SP/G            HT/PER HT/PER/DIR
                 (UTC) (F)     (DEG/KT/KT) (MB)    (FT/S) (FT/S/D)
5E ST. MARYS GA  NOT AVBL
FRYING PAN BUOY  1810   54 70  350/  6/ 10 1022.3
BUOY 41025       1750   51 72  330/  8/ 14 1021.2S   5/ 9   5/130/ 9
CAPE LOOKOUT NC  1800   53      20/  2/  5 1021.0F
BUOY 41002       1750   69 71  310/ 14/ 17 1019.5R   7/ 7   7/300/ 7
BUOY 41010       NOT AVBL
ST AUGUSTINE FL  1800   58 67  360/ 14/ 16 1024.4F


$$




USA.gov is the U.S. government's official web portal to all federal, state and local government web resources and services.